Regional Weather Roundup
Issued by NWS

Home | Current Version | Previous Version | Graphics & Text | Print | Product List | Glossary On
Versions: 1 2 3 4 5 6 7 8 9 10 11 12 13 14 15 16 17 18 19 20 21 22 23 24 25 26 27 28 29 30 31 32 33 34 35 36 37 38 39 40 41 42 43 44 45 46 47 48 49 50
000
ASUS45 KSLC 200610
RWRUT

UTAH REGIONAL WEATHER ROUNDUP
NATIONAL WEATHER SERVICE SALT LAKE CITY UT
1200 AM MDT MON OCT 20 2014

UTZ001>011-023>025-200700-

NORTHERN UTAH

CITY           SKY/WX    TMP DP  RH WIND       PRES   REMARKS
BRIGHAM CITY     N/A     46  38  73 CALM      30.05R
HILL AFB         N/A     56  34  43 SE9       30.06S
LOGAN          CLEAR     43  35  73 CALM      30.06S
OGDEN            N/A     55  34  45 SE6       30.04S
PROVO AIRPORT    N/A     48  37  66 CALM      30.08R
SALT LAKE CITY   N/A     52  41  66 SE9       30.04S
VERNAL         CLEAR     49  33  54 W5        30.13S
WENDOVER         N/A     50  34  53 CALM      30.04R
HEBER CITY       N/A     37  32  81 CALM      30.14R
WEST JORDAN    CLEAR     54  41  62 SW7       30.07S

$$

UTZ012>022-026-027-200700-

SOUTHERN/CENTRAL UTAH

CITY           SKY/WX    TMP DP  RH WIND       PRES   REMARKS
BLANDING         N/A     49  40  70 N8        30.25S
BRYCE CANYON     N/A     35  30  82 W3        30.24S
CEDAR CITY       N/A     49  40  71 CALM      30.09S
DELTA            N/A     50  36  58 NE5       30.06S
HANKSVILLE       N/A     52  32  46 CALM      30.09S
MILFORD          N/A     51  33  50 W9        30.06S
MOAB/CYNLANDS  CLEAR     49  33  54 CALM      30.06S
PRICE            N/A     51  30  44 NE5       30.15R
ST GEORGE        N/A     66  36  32 E3        29.96R
KANAB            N/A     52  34  50 NE6       30.12R

$$

REGIONAL REPORTS     COLORADO/ARIZONA

CITY           SKY/WX    TMP DP  RH WIND       PRES   REMARKS
CRAIG, CO      CLEAR     39  31  72 E5        30.19R
GRAND JUNCTION CLEAR     52  34  50 E7        30.10R
RIFLE          PTCLDY    45  36  70 CALM      30.16R
MONTROSE       PTCLDY    52  41  66 SE7       30.18F
CORTEZ         CLEAR     47  43  86 NW3       30.18R
PAGE, AZ       NOT AVBL
GRAND CANYON     N/A     48  37  65 E6        30.18S
KINGMAN          N/A     57  44  62 SE5       29.97S
FLAGSTAFF        N/A     40  35  83 CALM      30.18F

$$

REGIONAL REPORTS    NEVADA/IDAHO/WYOMING

CITY           SKY/WX    TMP DP  RH WIND       PRES   REMARKS
LAS VEGAS, NV    N/A     73  36  25 SW9       29.85R
ELY              N/A     45  30  55 S13       30.12S
ELKO             N/A     50  30  46 N6        30.01S
POCATELLO, ID  CLEAR     42  33  70 N8        30.04R
BURLEY           N/A     47  34  60 SE5       29.98R
EVANSTON, WY     N/A     48  27  44 SE7       30.19S
ROCK SPRINGS   CLEAR     50  27  40 CALM      30.18S
KEMMERER       CLEAR     37  28  70 N10       30.22R WCI  30

$$



USA.gov is the U.S. government's official web portal to all federal, state and local government web resources and services.